Theta_e
314 313 314 314 313 313 313 314 314 313 314 314 314 314 314 315 314 314 314 314 314 314 313 313 312 311 312 312 313 313 311 309 309 310 312 313 308 309 310 310 315 315 322 328 327 336 339 340 343 341 341 337 338 342 344 345 347 353 358 359 355 358 362 361 362 362 364 365 360 359 358 358 358 356 352 350 350 350 349 348 347 347 347 349 350 349 349 349
314 314 314 313 313 313 313 313 313 314 313 314 314 314 314 314 314 314 314 313 314 313 313 313 312 311 312 313 313 313 311 310 312 315 316 310 311 310 308 311 316 315 323 330 329 334 335 337 339 338 338 335 336 340 342 344 344 351 357 357 356 361 361 359 361 360 362 362 359 359 358 358 357 354 352 352 353 350 351 350 348 348 348 349 349 349 349 350
314 314 314 314 313 313 313 313 313 314 314 314 313 313 313 313 313 314 313 313 313 313 313 312 312 312 313 314 314 313 311 312 318 322 316 310 312 310 308 312 317 317 323 330 328 329 331 335 337 335 335 335 337 338 341 343 345 349 353 357 359 361 360 359 361 360 360 359 359 360 358 358 356 354 354 354 352 351 352 350 349 349 348 347 348 350 350 350
314 314 314 314 314 313 313 313 313 313 313 313 313 313 313 313 313 313 313 313 313 313 313 312 312 312 314 313 313 311 312 318 318 320 323 319 314 310 308 311 319 320 324 330 326 325 329 332 334 332 335 338 337 338 342 344 346 349 352 356 358 360 361 360 360 359 358 357 359 360 358 359 357 354 354 353 353 353 351 349 349 348 347 346 346 349 350 350
314 314 314 314 313 314 313 313 313 313 313 313 313 313 312 313 313 313 312 312 313 313 312 313 313 313 314 312 312 312 314 318 312 322 327 324 319 311 308 312 319 321 324 328 325 324 327 329 330 331 337 340 338 340 343 343 346 351 352 352 354 358 362 361 358 357 356 356 359 359 359 359 356 354 353 353 355 354 350 348 348 346 347 346 346 349 350 350
313 313 313 313 313 314 313 313 313 313 313 312 313 313 313 312 312 312 312 312 312 312 311 313 313 313 314 310 312 314 315 313 313 319 320 322 321 312 309 312 318 323 324 325 325 324 325 326 328 333 339 342 341 343 342 341 344 351 353 353 354 358 362 360 357 357 357 357 360 359 358 356 355 355 353 352 354 352 348 347 347 347 348 348 349 350 349 349
313 313 313 313 313 313 313 313 313 313 313 313 313 313 313 313 312 312 312 312 312 311 312 313 314 314 313 310 314 314 312 313 312 312 317 320 318 311 308 315 322 325 324 324 325 323 323 325 330 335 340 344 344 343 342 340 343 349 351 357 359 358 361 358 356 358 357 357 359 357 356 356 357 355 351 352 352 350 348 348 349 349 350 350 350 349 349 350
313 313 313 313 313 313 313 313 313 313 313 313 314 313 313 313 312 312 312 313 312 312 312 313 314 313 312 313 316 312 308 312 315 317 319 317 315 309 310 324 331 328 324 326 325 323 323 327 333 337 342 345 342 342 342 338 343 346 349 358 361 359 361 357 355 358 358 359 357 356 357 357 356 354 353 354 351 349 349 348 349 349 349 349 348 348 350 351
313 313 313 313 313 313 313 313 313 313 313 313 314 314 314 313 313 312 312 313 312 312 313 314 314 312 312 315 314 308 309 315 323 327 321 315 312 307 315 329 331 327 324 325 326 325 325 329 334 337 342 344 338 339 338 335 340 345 351 359 360 360 360 358 357 359 359 358 357 357 358 357 355 354 356 355 351 349 349 348 348 348 347 348 347 348 351 351
313 313 313 313 313 313 313 314 314 313 313 314 314 315 314 313 312 312 312 312 312 313 313 313 314 311 314 317 312 305 314 320 328 331 321 312 309 310 323 329 324 325 324 323 326 326 326 330 334 335 339 340 336 335 334 333 340 347 355 360 359 360 360 358 359 359 359 358 357 359 358 356 356 356 358 354 350 350 349 348 348 348 348 348 348 348 352 352
313 313 313 313 313 314 313 314 314 314 314 314 315 314 313 312 311 311 311 312 312 313 313 314 314 312 314 316 310 306 318 319 323 328 320 311 311 315 326 328 321 322 321 321 325 326 329 331 334 335 337 338 334 335 337 338 347 355 357 360 359 361 361 359 360 360 359 360 358 357 357 357 356 357 359 353 350 350 350 349 348 348 348 348 348 348 351 352
312 313 313 313 313 313 313 314 314 315 315 314 315 313 311 311 311 311 311 311 312 312 313 314 314 314 315 315 312 310 316 314 314 323 319 315 319 317 321 327 324 321 319 320 321 324 328 328 333 337 336 336 334 339 348 350 354 356 356 360 361 361 362 360 359 359 360 360 358 356 357 358 358 359 357 352 350 351 351 350 349 349 349 349 349 348 351 352
312 313 313 313 313 313 313 314 314 314 314 314 314 312 310 311 311 311 310 311 312 313 315 315 313 314 315 313 311 310 312 311 312 321 321 317 320 320 320 323 323 321 318 319 319 324 326 322 329 335 331 334 335 338 350 355 354 357 356 360 361 361 363 360 356 358 360 359 358 359 357 357 360 358 354 352 351 351 351 351 349 349 349 348 349 348 349 351
312 313 313 313 313 313 313 313 313 313 314 314 313 310 310 310 311 311 311 312 312 314 316 315 314 315 312 309 310 312 315 315 314 321 321 317 319 322 322 318 317 318 317 318 318 323 326 319 323 329 329 332 333 335 351 356 353 358 356 357 359 354 357 360 355 357 362 357 357 362 357 356 361 357 354 352 351 351 351 351 349 349 349 349 349 348 348 350
312 313 313 313 313 313 313 313 313 313 314 314 311 310 310 311 311 310 310 313 314 315 316 315 316 317 314 313 315 315 318 318 318 320 319 317 319 322 322 317 316 316 316 318 316 319 321 318 323 330 332 330 329 339 355 356 355 358 350 348 354 349 354 361 354 355 362 357 356 361 359 359 360 356 354 352 351 353 352 351 350 349 350 349 349 349 348 350
312 313 313 313 314 313 313 313 313 313 313 312 311 310 311 311 311 309 313 316 316 316 316 316 316 317 317 316 315 316 319 320 320 319 318 319 319 321 322 319 317 317 317 318 317 318 318 319 325 329 331 328 328 344 356 352 352 357 349 344 347 347 352 359 355 353 358 358 357 359 361 361 359 356 354 352 352 353 353 352 350 350 350 349 350 349 348 349
313 313 314 314 314 313 313 313 313 313 313 312 311 311 312 311 311 312 316 318 317 317 317 317 317 317 315 313 315 318 319 320 321 320 321 321 319 320 321 319 318 318 318 317 318 320 321 323 327 328 328 326 331 345 349 343 344 350 349 346 348 350 351 354 356 355 355 359 360 359 363 363 359 357 354 352 353 354 352 351 351 350 350 350 350 349 349 349
313 313 314 314 314 314 313 313 313 313 313 312 312 312 312 311 313 313 316 318 317 317 318 317 318 317 311 310 315 318 317 317 320 321 322 322 319 320 320 318 318 318 317 318 319 322 326 325 326 329 326 323 333 343 338 337 343 344 345 343 345 351 352 352 357 357 357 360 361 360 363 363 359 358 355 353 353 353 353 351 351 350 349 350 350 349 350 349
313 313 314 314 314 314 313 313 313 313 313 313 313 313 312 313 314 315 316 317 317 319 320 318 319 315 310 312 314 317 317 317 319 321 321 319 318 318 318 318 318 317 316 318 320 323 327 327 328 331 327 322 332 339 334 339 348 348 348 346 344 346 350 356 359 357 358 360 362 362 363 363 362 359 356 354 353 352 353 352 351 350 349 350 349 349 349 348
313 314 314 314 314 314 313 313 313 313 314 314 313 314 316 317 318 318 318 318 317 316 315 316 317 315 315 314 315 317 317 318 319 319 320 318 318 317 316 317 318 316 316 319 322 323 328 333 332 330 328 324 331 340 335 337 350 353 350 348 347 346 348 358 361 357 358 360 361 362 362 363 362 358 356 355 354 352 352 353 352 351 350 350 349 349 349 348
313 313 314 315 315 314 314 313 313 314 315 314 314 317 317 316 318 318 318 319 318 317 316 315 316 316 316 315 316 317 318 319 318 318 319 317 318 318 316 317 316 316 318 321 323 323 328 336 333 328 326 322 327 337 332 328 342 351 349 347 345 347 351 358 361 358 357 360 360 360 361 364 362 358 355 354 355 352 351 352 352 352 351 350 349 349 349 348
313 314 315 315 315 314 314 313 313 314 315 314 314 316 315 315 317 316 316 317 317 316 316 316 315 315 316 316 317 317 318 321 319 318 318 317 318 318 317 318 318 319 321 324 327 328 330 333 331 325 322 319 321 328 327 324 331 340 345 343 341 349 355 357 360 358 355 359 361 360 361 363 361 358 356 355 355 354 352 351 351 351 351 350 350 348 348 347
313 314 315 315 315 314 313 313 313 315 315 314 314 315 316 317 317 314 315 316 315 315 315 316 316 316 317 316 317 317 318 321 321 318 318 318 317 318 320 320 321 323 324 327 331 332 330 328 327 323 319 320 320 321 324 323 323 330 337 337 341 351 352 352 356 356 354 357 360 360 361 362 362 359 358 356 355 355 355 355 352 351 351 350 349 348 348 347
314 314 315 315 314 314 313 313 314 315 315 315 316 317 317 317 316 316 316 316 315 315 315 315 316 317 318 317 317 318 319 321 321 319 319 319 318 320 322 322 325 327 326 327 328 330 328 322 321 320 318 321 321 320 321 323 322 325 332 335 345 353 351 353 356 355 356 357 357 360 359 359 362 362 359 357 356 356 355 355 354 351 350 350 349 348 348 347
315 315 316 315 315 314 312 313 315 314 315 316 317 317 316 317 317 316 316 316 316 315 313 314 316 317 317 318 318 318 319 320 320 321 320 320 320 321 322 321 325 328 324 323 325 327 325 320 319 320 319 320 322 322 322 322 320 321 327 332 346 357 355 357 357 354 356 355 355 358 354 355 361 363 362 359 358 358 355 355 355 353 351 349 349 348 347 347
315 316 316 315 315 313 314 317 315 313 316 318 318 317 316 317 317 315 316 316 313 312 313 314 315 316 316 319 319 318 320 321 319 321 321 321 321 322 322 320 323 324 321 322 324 324 322 320 319 321 321 321 323 322 321 322 320 320 324 324 342 359 356 356 356 350 349 350 353 356 352 353 358 361 363 361 360 359 357 357 355 355 354 350 348 348 347 346
315 316 316 315 315 313 315 317 314 314 318 319 317 317 316 318 316 314 317 316 312 312 314 312 312 314 314 317 318 318 321 321 320 321 321 322 322 321 323 322 323 322 319 322 323 321 321 319 319 321 321 321 322 322 321 321 319 320 321 322 343 359 356 356 354 346 347 350 354 356 352 350 353 358 362 361 361 361 359 358 356 355 354 351 348 347 346 345
316 316 315 315 315 314 313 314 314 316 318 317 316 316 318 317 315 315 317 315 312 312 313 312 312 312 312 315 317 318 318 320 323 322 321 322 322 321 323 324 324 322 319 322 323 320 320 320 320 321 321 321 322 322 322 320 322 328 330 334 350 357 355 356 350 344 346 348 351 353 350 348 350 357 363 361 360 361 361 360 357 355 354 353 349 346 346 344
317 316 316 315 315 314 313 313 315 317 317 316 316 317 318 317 315 318 317 313 312 311 312 312 312 312 313 316 318 317 317 319 322 321 320 322 321 321 322 322 322 322 319 321 324 321 319 320 321 320 321 322 321 322 320 317 327 339 343 345 351 353 354 355 348 345 346 344 345 348 347 346 347 354 360 360 359 360 362 362 359 356 353 353 351 348 347 344
317 316 316 315 314 314 314 314 315 316 316 315 316 318 317 316 317 318 316 313 312 312 312 312 312 313 316 319 318 317 318 319 320 320 320 321 320 319 319 318 320 321 320 320 322 322 319 320 321 320 321 321 320 321 317 320 335 343 345 346 348 349 350 351 347 344 344 340 339 343 346 343 342 348 356 358 358 358 362 363 362 358 354 353 354 350 348 344
317 316 315 315 314 314 314 316 315 315 316 315 317 318 318 319 319 317 316 314 312 313 312 312 312 313 316 320 319 317 317 318 321 322 321 322 321 320 319 320 321 321 321 320 320 321 319 320 322 321 321 319 319 319 316 327 341 342 345 342 341 345 345 344 345 344 343 338 336 341 347 343 339 344 352 357 356 354 358 360 360 360 357 354 353 352 350 346
317 315 315 314 314 314 315 316 316 315 315 316 319 320 321 320 317 315 316 314 312 313 313 312 312 314 316 318 318 317 317 318 320 322 322 322 322 322 321 322 322 320 318 318 318 319 319 321 321 320 322 319 320 318 319 333 343 342 342 333 332 343 344 340 342 342 339 336 336 342 347 344 341 344 350 355 354 352 353 355 356 358 359 356 353 353 354 350
316 314 314 314 315 315 315 315 315 315 315 317 320 321 321 318 314 315 317 315 312 313 313 312 312 313 315 317 317 316 315 316 318 320 320 320 322 323 320 319 321 320 318 317 317 316 317 320 319 319 321 320 320 318 318 332 342 339 335 325 326 338 342 341 341 338 336 335 337 344 346 342 341 346 353 353 352 352 350 351 353 355 358 358 354 352 356 353
315 314 315 316 316 316 315 315 314 315 316 318 320 321 319 316 316 318 319 317 315 314 312 311 312 313 314 315 314 314 315 315 317 319 319 320 322 322 321 319 319 321 320 318 316 315 314 316 318 319 320 320 322 319 319 331 339 338 337 328 323 327 332 335 336 334 335 337 340 345 345 340 340 348 354 354 354 354 351 350 351 354 357 359 357 354 356 356
315 315 316 316 317 317 317 317 315 316 318 319 321 322 320 317 316 316 317 316 316 314 312 311 313 314 313 314 313 313 314 314 315 317 318 320 320 319 321 319 318 319 320 317 317 316 314 314 318 320 319 320 321 319 321 329 333 337 340 330 322 324 329 330 332 335 336 338 343 344 343 343 346 350 353 354 355 355 354 353 352 354 356 358 359 357 355 356
316 315 316 317 318 319 319 319 317 317 319 321 321 320 318 318 317 316 318 317 314 313 312 311 313 313 311 314 315 314 314 315 315 316 315 316 316 316 316 316 316 318 319 319 319 316 313 314 319 320 319 321 321 319 325 328 329 335 335 327 326 333 335 330 332 338 335 336 343 342 339 343 346 349 353 355 355 355 356 355 354 355 355 357 359 359 357 357
316 316 318 319 320 320 319 320 318 318 320 322 322 320 319 319 316 317 321 317 312 312 313 312 312 312 312 313 315 315 315 315 315 315 314 314 314 315 315 315 315 317 318 319 319 318 315 314 319 320 319 321 320 320 326 329 330 333 330 328 330 334 336 333 334 338 335 334 341 341 337 339 341 346 356 359 356 356 357 355 355 355 355 357 359 360 360 357
315 317 319 319 320 320 319 319 318 320 323 324 327 326 322 320 317 317 318 314 311 313 315 314 313 314 314 313 314 315 315 314 315 315 315 314 314 314 315 315 315 316 316 316 317 318 316 314 317 319 319 320 320 320 323 327 328 330 332 333 329 326 328 332 334 337 335 334 340 342 339 338 338 345 356 359 356 356 357 356 356 355 354 356 359 360 361 358
316 319 320 319 320 319 319 319 319 324 326 323 326 326 320 318 318 318 316 313 313 315 315 315 315 315 315 315 315 316 315 314 315 316 315 315 315 314 314 315 315 315 315 315 317 318 317 315 315 317 319 319 321 320 318 322 326 328 334 336 327 323 327 330 332 332 331 333 338 341 341 339 341 348 355 357 355 354 355 357 357 355 354 356 358 360 361 360
318 321 320 319 319 319 319 320 322 328 326 320 322 322 317 317 320 318 315 314 314 315 315 316 316 316 316 316 315 316 317 316 316 316 316 315 314 314 314 314 314 315 314 315 318 319 319 317 314 317 319 317 319 321 318 323 325 324 329 330 324 324 328 330 331 330 330 333 335 335 335 337 342 350 355 356 355 353 353 355 356 355 354 355 357 358 359 359
320 322 321 319 320 319 320 321 322 323 321 319 320 320 319 320 320 317 314 314 315 314 314 316 317 317 318 317 316 317 318 318 316 316 315 314 314 314 314 313 313 314 315 317 319 318 319 319 315 315 316 315 319 321 320 324 325 325 328 328 325 325 327 327 330 332 331 331 333 330 330 336 344 349 353 355 353 351 352 353 354 354 354 354 354 356 357 357
324 324 320 319 320 319 320 322 322 320 319 319 318 317 320 321 317 313 314 315 315 315 315 316 316 317 318 317 316 318 319 317 316 316 314 314 315 314 314 313 312 312 316 319 319 319 322 322 318 315 315 319 320 319 318 319 322 325 326 328 329 327 325 323 325 332 333 332 333 329 330 341 348 348 351 353 350 349 349 351 352 352 352 354 353 354 355 356
328 324 319 320 321 320 321 322 324 323 320 319 317 315 317 318 314 313 315 315 316 317 316 316 315 316 317 316 317 319 318 316 316 315 315 315 314 314 314 313 312 314 317 319 321 323 326 325 320 317 318 320 319 319 319 317 320 324 322 324 327 326 327 326 329 334 332 331 333 327 329 342 349 348 350 350 348 348 347 348 350 349 349 351 352 353 354 354
327 323 321 321 319 319 321 320 321 323 322 321 319 317 316 315 313 314 315 316 316 316 317 317 316 316 316 316 317 318 316 315 315 314 315 315 315 316 316 314 315 318 320 321 323 323 325 326 322 316 315 317 317 318 317 317 319 321 322 325 327 329 332 332 336 338 331 333 334 325 327 342 349 348 349 348 347 347 347 347 347 348 349 348 348 350 351 352
322 321 322 321 318 318 319 318 317 320 322 322 320 317 317 316 314 313 315 316 315 314 316 317 315 316 318 317 318 318 317 316 315 315 315 314 315 317 315 315 317 320 325 329 329 325 324 325 323 317 315 316 317 318 317 318 319 319 324 328 329 333 334 332 334 331 327 336 338 327 331 347 351 349 348 347 347 347 347 346 346 347 347 345 346 345 345 346
322 324 325 322 319 318 316 314 315 317 321 323 320 317 317 317 315 313 314 316 316 315 317 317 316 317 319 319 320 320 319 317 316 319 318 315 315 314 315 317 316 321 333 334 328 327 327 325 324 323 320 317 318 320 320 320 318 317 322 328 331 335 336 335 332 326 328 336 336 335 343 350 352 351 349 348 347 347 347 346 346 346 344 343 343 342 341 341
323 325 327 326 322 319 317 315 317 318 318 319 319 317 317 317 317 316 316 317 316 317 319 319 319 319 319 321 321 320 321 321 319 320 320 319 318 316 317 318 315 323 336 329 322 328 329 322 322 323 319 317 318 319 318 319 320 320 323 328 332 336 337 334 328 329 335 332 329 341 350 347 348 351 349 348 347 347 346 345 345 344 342 341 341 340 341 341
323 321 322 324 322 320 319 319 321 320 317 318 319 317 317 318 318 319 318 318 317 317 319 321 320 319 320 322 321 321 325 324 320 320 321 320 321 319 318 318 315 320 326 320 320 328 326 318 321 321 316 317 320 321 323 326 328 330 332 332 333 334 335 333 331 336 341 329 327 345 351 345 347 348 346 347 346 346 346 344 343 342 340 340 340 340 341 342
322 322 321 322 323 323 321 320 322 320 319 324 325 318 317 319 318 317 316 319 321 318 318 322 321 318 319 321 321 323 324 321 317 320 322 320 320 320 318 318 317 317 317 317 321 326 325 323 324 322 318 318 321 324 328 329 329 329 332 335 337 338 337 337 337 340 343 338 339 348 350 347 348 346 345 346 344 343 344 342 341 341 340 340 340 340 341 341
322 323 324 325 326 327 324 320 322 322 321 325 324 318 317 318 318 316 315 317 322 320 318 320 320 317 318 319 320 320 320 319 317 318 319 319 320 320 319 318 317 317 317 319 321 324 328 331 330 324 319 317 319 324 324 325 327 327 328 332 336 339 341 341 342 343 344 346 347 348 349 348 345 344 344 344 342 343 343 341 341 340 339 340 340 340 340 339
321 320 322 328 330 329 325 320 322 325 321 321 321 320 319 317 316 317 315 314 317 318 317 318 317 317 318 319 319 317 317 318 318 315 315 317 317 317 318 317 316 318 320 320 323 329 332 332 329 325 319 315 317 320 321 322 325 324 325 328 329 334 340 341 342 344 344 346 347 346 346 347 345 343 343 342 341 342 341 341 341 339 339 340 339 338 338 338
323 322 321 327 330 327 324 322 322 323 320 319 321 321 320 318 316 317 318 315 314 315 315 316 317 318 318 318 318 315 314 316 315 312 311 313 313 314 316 316 315 318 322 320 323 330 335 332 327 322 318 315 316 320 321 321 321 322 327 329 328 333 341 342 342 345 345 346 346 344 344 346 344 343 343 342 342 341 341 340 339 339 339 339 338 337 337 336
Wind_Speed
11 11 11 11 11 11 11 11 10 11 10 10 10 10 10 10 10 10 9 9 9 9 9 9 9 10 9 9 10 10 12 12 13 10 10 13 11 11 6 11 18 21 25 23 23 20 13 12 12 11 8 5 3 3 4 2 1 2 1 2 4 4 5 4 3 3 6 10 11 7 5 11 12 8 7 8 10 11 10 10 11 11 11 16 20 24 25 23
11 11 11 11 11 11 10 10 10 11 11 10 10 10 11 10 10 10 9 9 9 9 9 9 9 9 9 9 9 9 11 13 12 12 18 16 7 11 10 13 20 25 28 25 23 19 14 12 13 12 6 4 2 3 4 3 3 3 2 2 4 4 4 4 2 3 6 11 11 7 7 10 11 10 7 7 10 10 11 11 12 15 15 19 23 23 23 23
12 12 11 11 11 11 10 11 10 11 11 11 11 11 11 10 10 9 9 9 9 9 8 8 9 8 9 8 8 9 10 10 7 8 12 11 9 11 13 17 21 25 28 26 23 19 15 14 15 12 5 3 3 3 4 4 3 3 3 2 2 1 2 3 2 4 7 11 12 9 9 9 9 7 5 8 11 9 10 11 12 15 17 20 21 22 23 22
13 12 12 12 11 11 11 11 11 11 11 11 11 11 11 11 10 9 9 9 9 9 8 8 8 7 8 7 6 7 7 5 3 2 4 1 8 13 15 20 23 25 27 24 21 18 17 16 13 9 5 4 3 3 4 4 3 2 3 2 2 0 0 4 3 7 9 8 9 10 11 9 7 5 6 12 10 6 7 10 14 18 20 21 20 21 22 20
13 13 13 13 12 12 11 11 12 12 12 11 11 11 11 11 10 9 8 8 8 8 8 8 7 7 7 4 4 5 4 2 1 2 3 3 6 16 17 23 26 25 26 22 17 16 17 16 10 6 4 4 5 4 4 5 4 2 3 4 2 0 1 4 5 8 9 7 8 10 10 8 6 6 9 10 5 4 6 8 14 19 21 22 21 21 20 19
14 14 14 13 12 12 12 12 12 12 12 12 11 11 11 10 9 8 8 8 8 8 7 7 6 7 4 2 2 2 2 2 3 5 2 5 5 20 20 25 27 25 26 21 16 15 14 12 9 6 4 4 6 5 3 6 6 3 3 3 2 1 3 5 7 7 8 8 8 7 7 6 8 8 6 4 3 5 8 9 14 17 19 22 22 21 18 17
15 15 14 14 13 13 13 13 12 12 12 12 11 11 10 10 9 8 8 7 8 7 7 7 6 5 2 2 1 1 1 4 6 8 5 5 9 23 23 25 27 27 26 20 16 14 13 11 9 7 6 5 5 6 3 5 8 6 4 1 2 3 4 7 7 7 7 8 7 6 7 7 9 9 4 4 6 9 11 13 16 19 21 21 20 18 17 16
16 16 15 14 14 13 13 13 13 13 12 12 12 11 10 9 8 8 8 7 7 7 6 6 6 3 1 3 1 0 2 4 7 9 6 3 18 26 25 24 26 28 25 20 16 13 13 12 9 7 6 5 4 6 4 4 8 9 5 2 4 5 6 7 8 8 8 7 7 8 8 6 7 9 5 5 9 11 13 15 17 19 19 18 16 17 16 15
17 17 16 15 14 13 13 13 13 13 13 12 12 11 10 9 8 7 7 8 7 6 6 5 4 1 4 2 1 1 1 4 8 7 1 12 24 27 26 24 26 27 23 19 15 13 12 10 9 6 4 5 3 4 4 4 5 7 6 4 6 6 7 8 9 9 8 5 7 10 9 6 5 6 6 6 10 13 15 16 17 17 17 15 14 15 15 14
18 17 17 16 14 13 13 13 13 13 13 12 12 11 9 8 7 7 7 7 6 6 5 3 2 3 4 2 1 1 2 6 8 4 8 18 24 28 27 25 27 25 20 16 15 13 9 6 7 2 2 4 2 2 3 4 2 6 7 8 8 8 7 8 8 8 7 5 6 10 8 5 2 1 4 6 11 14 15 16 16 16 15 14 13 13 14 14
19 18 18 17 15 14 13 14 14 13 13 12 12 10 8 7 6 7 7 7 6 4 4 3 2 4 3 2 2 2 2 6 11 4 14 22 25 29 28 27 26 22 18 12 11 12 6 3 5 2 1 2 1 2 1 2 5 10 11 10 8 7 6 7 9 7 6 3 2 9 8 4 1 0 5 10 13 14 16 16 15 14 13 13 13 12 11 12
19 19 19 18 17 15 14 14 13 12 12 12 11 9 7 7 6 6 6 5 5 2 1 1 4 5 3 2 4 5 3 5 12 3 18 23 23 24 23 27 25 20 18 11 8 12 6 1 5 5 1 1 2 3 1 3 8 10 9 8 7 7 5 5 7 3 3 4 3 9 7 2 2 2 7 12 13 14 15 16 15 13 12 12 13 10 10 11
19 20 19 19 17 16 15 14 14 13 12 11 10 8 7 7 6 6 4 2 1 0 0 2 6 5 2 2 4 5 6 6 8 3 20 20 17 16 18 24 21 18 18 13 12 14 9 3 1 4 2 2 2 3 1 5 7 8 6 5 6 6 3 3 3 1 3 5 2 3 3 5 4 2 8 13 13 15 14 14 14 12 11 11 11 10 10 11
20 20 19 19 18 17 16 15 14 13 11 10 10 7 6 6 5 4 1 1 2 3 3 5 5 3 1 4 3 2 3 3 1 10 20 17 14 13 14 18 15 14 13 13 15 16 11 2 4 2 1 2 2 2 4 5 4 5 5 4 4 3 4 4 3 2 4 3 2 1 2 6 6 4 10 13 13 16 13 14 14 11 11 10 10 10 10 11
20 20 19 19 18 17 16 15 14 12 11 10 8 6 4 3 2 2 3 3 2 4 5 5 3 1 2 5 3 1 0 3 5 12 18 17 15 11 12 15 12 12 9 7 12 14 11 1 3 1 0 1 1 2 5 5 3 4 4 3 3 2 3 4 4 4 4 3 2 0 2 5 6 6 10 12 13 14 13 14 13 12 12 10 10 10 9 10
21 20 19 19 19 18 17 15 13 11 9 8 6 3 0 1 2 3 5 4 3 7 6 3 1 1 2 2 0 1 1 3 4 10 16 16 13 10 14 14 11 12 9 5 5 7 8 3 1 0 1 1 2 4 5 4 4 4 2 3 4 4 3 3 5 4 4 4 2 2 3 4 5 8 10 12 13 13 13 13 13 13 12 11 9 9 9 9
21 20 20 18 18 18 17 16 13 10 7 5 2 3 4 4 5 6 6 4 5 8 6 2 0 1 3 2 0 1 0 1 3 10 17 14 9 13 17 10 7 9 6 3 2 4 6 3 1 1 0 1 2 4 5 4 5 5 3 2 4 5 5 3 4 5 5 7 6 4 3 3 6 11 12 14 14 12 12 13 13 12 10 10 9 9 9 9
22 21 20 18 18 18 17 15 13 8 5 3 4 6 6 6 7 7 6 6 6 5 3 2 1 2 2 2 1 0 2 1 3 9 16 12 9 15 15 8 8 9 6 3 2 3 4 2 1 1 2 2 3 6 5 3 5 7 5 3 4 5 5 4 4 6 7 7 9 7 4 4 9 11 9 12 13 12 12 12 12 12 11 10 9 9 9 9
22 22 20 19 17 16 16 14 12 7 3 4 8 9 8 8 7 6 6 5 3 2 2 1 2 1 1 2 3 5 5 1 4 8 13 13 12 13 12 10 11 10 8 6 3 3 4 3 2 3 4 3 5 8 4 1 4 8 6 3 5 4 4 4 4 6 8 7 8 8 5 7 11 11 9 10 11 11 11 10 10 10 10 9 9 8 9 9
23 22 21 20 17 16 15 13 11 4 3 7 10 9 5 4 2 2 2 2 4 4 5 3 4 3 4 3 3 6 3 3 3 6 13 15 15 13 9 9 9 6 7 8 6 3 3 5 4 5 5 4 7 9 3 1 4 8 6 4 5 4 3 4 4 6 7 6 7 6 5 8 11 11 11 9 9 12 12 10 10 10 10 9 9 9 9 10
24 23 22 20 17 16 14 13 10 2 4 8 9 4 1 0 1 1 1 4 5 6 8 5 3 5 7 4 3 4 2 3 4 6 14 16 15 11 5 6 9 7 5 8 7 3 3 6 5 6 4 3 5 6 3 1 4 7 6 5 4 3 4 4 4 7 3 2 5 7 5 8 9 10 11 10 10 13 13 12 12 11 11 9 10 11 10 9
25 24 23 20 17 15 13 13 9 1 5 8 8 3 2 2 3 3 1 4 4 5 7 3 2 7 9 7 6 3 0 3 6 7 12 13 8 5 4 7 9 7 5 8 7 4 5 6 6 6 2 2 2 3 4 2 3 4 4 5 3 4 6 5 4 7 2 2 4 7 6 6 8 9 11 12 10 8 7 10 12 12 11 10 10 11 10 9
26 25 24 20 17 14 12 12 6 3 6 6 7 4 2 4 4 5 2 3 4 1 2 3 4 6 5 5 6 6 3 2 5 6 11 10 3 2 7 8 8 9 8 9 9 7 5 3 6 5 2 4 3 3 5 3 2 2 2 3 3 6 6 2 3 6 4 1 3 6 4 4 6 8 8 8 7 3 2 5 8 10 11 11 11 10 10 10
26 25 23 20 17 12 11 10 3 3 2 4 7 5 3 6 5 8 3 1 3 2 2 4 3 4 4 2 7 9 3 1 4 7 11 10 4 3 6 7 9 10 7 8 9 7 4 1 2 4 4 6 4 4 5 4 3 1 2 3 4 8 5 2 6 7 5 3 4 6 4 2 7 9 8 6 5 4 4 4 6 8 9 10 10 10 10 10
27 25 22 20 15 10 9 6 2 0 4 4 6 3 6 8 4 9 3 1 1 2 1 2 2 4 3 2 6 5 2 2 2 6 11 10 7 4 4 3 5 7 7 8 8 5 3 3 4 5 4 5 5 5 5 5 4 1 4 6 5 9 5 9 11 8 4 2 5 7 3 3 6 9 10 7 6 7 6 6 7 8 9 9 9 10 10 10
27 25 21 18 14 9 6 1 2 5 5 3 2 5 10 7 5 10 2 1 1 2 1 1 1 3 3 3 4 3 3 4 0 6 12 11 7 3 4 2 1 4 7 6 4 2 2 4 5 4 4 5 5 5 4 4 4 2 2 6 8 11 9 13 14 8 3 2 6 7 3 1 3 7 10 10 10 10 6 6 7 6 7 9 10 11 11 10
27 23 18 15 14 8 2 1 2 4 2 1 2 7 11 4 8 7 1 1 2 1 1 0 0 3 3 2 4 3 4 4 3 5 8 9 6 0 3 4 2 4 4 4 3 2 4 5 4 4 5 5 5 5 5 6 5 1 2 3 10 12 11 14 12 7 3 3 6 6 2 1 1 5 10 12 12 11 9 8 8 8 8 9 11 12 11 12
26 21 16 13 12 9 4 4 3 3 2 1 3 8 9 2 8 3 2 1 2 1 1 0 1 2 1 1 3 1 0 3 5 4 3 6 5 1 3 6 5 7 4 4 6 2 3 6 6 6 5 4 5 3 5 8 4 2 3 3 9 9 9 10 8 4 4 3 4 6 5 2 1 2 7 11 12 13 12 11 10 11 11 10 11 12 12 12
25 19 14 12 10 9 6 5 4 3 3 2 4 8 6 4 5 1 1 2 2 1 1 1 1 1 1 2 2 0 1 1 2 2 2 5 3 1 3 5 5 8 4 2 5 2 2 4 5 7 5 5 5 2 6 9 3 6 10 10 9 8 7 6 4 3 4 4 4 8 9 4 1 3 6 9 11 13 11 10 10 11 11 11 10 11 11 10
23 16 13 11 9 6 4 6 5 4 3 3 5 6 2 4 1 2 1 2 1 1 0 1 1 1 2 4 2 0 2 1 2 3 3 2 2 3 2 2 3 6 4 1 3 2 1 0 2 4 5 4 4 2 4 7 9 12 13 11 9 7 6 4 1 1 4 3 2 8 12 6 2 3 7 7 6 8 8 6 8 9 10 10 9 9 11 10
20 14 11 10 8 5 3 3 3 4 3 4 4 3 2 2 1 0 3 2 1 0 0 1 1 1 2 4 3 1 2 2 2 5 5 3 3 4 2 3 3 3 3 2 2 1 1 2 2 3 4 3 2 2 2 7 13 10 7 8 7 5 4 3 2 1 4 2 1 5 11 8 4 2 6 6 1 4 9 9 9 11 11 10 8 8 9 9
16 12 10 10 9 8 7 2 2 3 5 5 2 1 1 1 0 1 2 1 0 0 0 0 1 1 3 2 1 2 2 2 1 4 5 4 4 4 2 2 3 3 3 4 3 1 4 4 3 3 3 5 5 3 3 8 11 7 6 8 5 2 2 2 2 2 4 1 3 3 9 6 3 1 3 7 4 4 7 9 10 11 10 8 8 8 7 7
13 9 8 8 9 10 9 7 7 7 6 3 1 1 1 0 2 1 1 1 1 1 0 1 1 1 3 2 2 2 1 2 0 1 3 1 4 5 1 2 2 2 1 3 3 3 4 3 4 5 3 6 8 5 5 7 7 8 8 7 5 3 3 3 3 2 3 1 3 4 8 4 2 2 2 3 4 4 5 7 9 11 11 8 7 8 6 6
10 7 6 7 8 8 8 8 7 5 2 1 1 0 1 2 1 1 1 1 1 1 1 1 1 2 3 1 0 1 1 2 2 2 3 2 4 5 3 2 2 1 1 3 3 3 5 3 6 9 4 7 10 8 7 8 7 8 7 5 6 5 3 2 4 3 1 3 4 6 6 2 1 2 0 2 3 4 5 6 7 10 10 8 6 7 7 6
8 5 5 6 5 5 5 7 6 3 2 1 1 0 1 1 1 1 1 2 2 0 1 1 1 3 2 1 2 1 0 2 2 2 2 2 3 2 3 2 2 2 2 2 2 2 3 2 4 6 2 8 12 8 7 10 8 6 4 5 6 5 3 1 1 1 3 4 3 4 3 1 0 1 1 3 3 4 4 5 8 10 10 9 6 7 7 6
5 3 3 4 6 5 2 3 5 5 3 0 1 2 2 1 1 1 0 2 2 1 2 1 2 2 2 1 1 1 1 2 1 1 2 1 1 2 2 1 2 5 4 3 2 2 2 1 3 2 2 8 12 9 10 9 6 5 4 5 3 1 3 2 1 3 3 3 2 3 3 1 1 2 3 4 5 5 4 5 9 12 12 10 7 6 6 5
4 2 2 6 9 5 0 4 7 6 2 0 1 2 1 1 2 2 1 1 1 1 2 1 1 1 2 1 0 1 1 2 1 1 2 1 0 1 1 1 2 5 4 3 3 1 2 2 2 4 5 6 5 7 8 6 4 6 7 6 4 3 1 1 1 2 3 4 2 3 6 3 2 1 3 5 6 6 6 5 9 13 12 11 8 6 5 5
5 2 3 8 11 3 5 7 7 4 1 1 1 1 1 1 1 2 1 0 1 1 1 1 1 0 1 2 2 0 1 2 2 2 3 1 0 2 1 1 3 2 1 3 4 1 2 4 1 4 4 3 4 6 5 4 3 2 5 7 4 2 3 2 2 4 5 4 2 3 5 5 5 3 4 7 7 6 7 6 9 14 14 10 9 7 6 5
4 1 2 10 9 5 8 5 3 0 1 1 1 1 0 2 2 3 2 0 1 1 1 1 0 0 0 1 2 1 1 1 3 2 2 1 1 2 1 0 2 2 1 4 5 2 1 3 1 2 1 4 6 7 6 6 4 1 4 7 2 2 3 3 2 3 5 4 2 3 3 4 4 3 5 8 7 7 7 7 8 13 14 10 7 7 6 5
2 1 2 9 4 10 5 1 1 2 2 1 1 0 1 3 3 2 1 1 0 0 1 0 0 1 1 1 1 1 1 2 3 1 1 1 2 1 2 2 1 1 1 3 3 2 1 2 1 2 2 4 6 6 7 9 9 5 5 7 4 1 2 2 1 1 2 3 2 2 2 1 2 2 3 6 7 7 6 6 6 9 13 11 7 6 5 4
1 1 2 5 4 6 2 3 1 2 1 1 1 2 2 2 3 4 1 0 0 1 1 2 2 1 1 1 1 1 1 2 2 1 1 1 1 1 1 2 2 1 2 3 2 2 2 2 3 1 1 4 3 1 4 7 10 9 7 8 7 5 4 5 4 1 1 1 1 2 1 1 3 1 1 4 6 5 5 6 6 5 9 11 9 7 6 5
1 1 2 1 3 1 4 1 1 1 0 1 1 3 2 2 3 4 3 3 2 2 2 3 2 1 1 1 1 1 1 2 2 1 1 1 0 1 1 1 2 1 1 2 1 1 1 1 2 3 3 3 1 1 1 3 4 4 4 6 9 8 7 8 6 4 2 1 1 1 1 1 3 1 2 5 5 4 5 5 5 5 4 7 9 9 8 6
1 1 1 1 3 1 3 1 0 1 0 2 2 2 2 2 2 3 3 4 3 1 2 2 1 2 2 1 0 1 1 2 2 1 1 2 1 1 2 2 2 2 1 1 1 2 2 1 1 2 2 1 1 2 2 0 2 3 2 3 7 6 4 4 4 5 5 3 2 2 2 1 3 1 2 5 6 5 5 6 6 6 4 4 5 6 7 7
1 1 0 1 2 2 1 1 1 1 1 3 2 1 1 1 2 3 3 4 3 1 2 2 1 2 2 1 2 2 2 1 1 2 1 1 1 0 2 3 1 2 1 1 1 2 2 1 1 2 3 3 3 4 4 2 4 4 2 3 3 3 5 4 3 3 4 2 1 3 3 2 4 4 4 6 7 7 6 6 6 6 6 5 5 4 3 4
1 1 0 3 1 1 1 1 0 0 1 3 3 3 2 1 1 2 2 3 2 1 1 1 1 1 1 1 3 3 3 2 1 1 0 1 0 0 1 3 3 0 1 0 2 2 1 1 1 3 5 6 5 5 3 3 3 1 3 4 3 6 8 5 4 4 5 3 2 3 2 4 5 7 7 8 8 8 7 7 6 6 6 6 5 4 4 3
0 1 0 2 2 2 1 1 1 0 0 1 1 2 3 1 0 1 1 2 3 2 2 2 1 1 1 2 3 4 5 4 2 2 1 0 1 1 1 3 2 3 3 2 3 2 2 2 0 1 1 2 1 1 1 0 2 3 5 6 5 4 3 3 4 5 4 5 4 2 4 8 9 9 10 10 9 8 8 7 7 6 6 6 6 6 5 4
1 1 1 0 1 1 1 1 2 1 1 0 0 1 3 2 1 2 2 2 3 3 2 2 3 1 1 2 3 3 4 4 4 3 1 1 2 2 2 2 2 6 6 2 3 1 1 3 1 1 2 2 1 1 2 1 0 2 5 7 6 4 2 4 5 5 7 7 4 3 8 12 13 13 12 12 10 9 8 8 7 7 7 7 7 7 7 5
1 1 0 1 0 1 1 1 2 1 0 0 0 1 3 3 3 3 2 2 2 3 2 2 4 5 3 2 3 2 3 2 3 3 1 1 2 3 3 1 1 6 5 2 2 0 2 3 2 1 4 5 3 3 3 3 3 4 4 4 4 3 3 4 3 3 6 4 3 9 14 11 12 15 14 12 11 10 9 7 8 8 8 8 8 8 8 6
1 2 1 1 0 1 0 2 1 2 2 1 1 2 2 3 3 2 2 2 2 4 3 1 2 5 4 2 4 3 2 2 3 2 1 1 1 1 2 2 1 4 4 3 2 1 1 2 1 0 4 9 8 7 7 6 7 9 9 7 4 3 2 3 3 4 3 3 2 12 14 8 9 14 14 12 11 10 9 7 8 9 8 9 9 9 9 9
1 1 0 1 1 1 0 1 0 2 2 2 1 2 2 2 3 2 2 3 2 3 3 2 1 3 4 3 7 5 1 1 2 1 1 1 0 0 1 0 1 4 5 2 1 2 1 1 0 2 2 8 9 8 8 6 7 11 12 10 8 4 4 5 5 5 3 4 7 13 12 8 9 12 13 12 11 10 10 9 9 9 9 10 10 10 10 11
2 1 1 0 1 2 1 1 1 1 1 1 1 2 1 2 2 2 2 3 2 2 2 2 2 1 2 5 9 6 1 1 2 2 3 2 1 1 1 1 1 3 5 2 1 3 2 1 1 1 2 5 6 5 5 3 4 9 11 12 10 4 2 3 3 1 2 7 12 11 8 8 10 13 13 13 12 12 12 11 10 9 9 11 11 10 11 12
3 1 1 1 0 2 1 1 1 1 1 0 1 1 1 1 1 1 2 2 2 3 2 0 1 1 3 6 7 4 3 3 2 1 1 1 1 1 1 3 3 2 3 2 1 1 2 1 1 2 1 3 4 3 2 1 3 4 8 11 9 4 0 2 3 3 3 8 9 5 4 8 13 14 14 14 14 13 12 10 9 10 10 11 12 12 11 12
Wind_Direction
350 347 345 341 338 335 333 331 328 326 324 322 320 317 316 317 317 317 318 319 322 323 324 325 323 321 320 320 321 320 323 318 311 304 255 260 257 226 202 168 173 163 162 159 145 138 130 135 141 147 147 130 148 151 160 194 211 231 262 304 312 322 316 346 43 118 126 132 138 154 163 134 131 124 120 113 98 101 95 86 88 85 100 114 122 131 138 142
346 345 342 338 336 333 332 330 328 324 321 320 318 314 314 313 313 315 315 317 319 321 323 323 322 321 320 322 324 324 327 320 308 286 260 262 260 212 188 165 174 168 165 163 152 146 140 147 150 151 150 131 154 158 164 189 194 236 282 315 320 348 352 358 68 118 126 136 136 141 142 132 132 134 143 129 116 116 103 100 101 101 112 119 126 135 140 142
343 342 338 336 333 331 330 329 327 323 321 318 316 314 312 310 311 312 312 314 316 319 320 321 322 320 322 323 324 329 330 325 298 273 277 266 238 214 179 167 176 172 170 169 160 155 144 144 151 148 137 133 152 166 179 191 187 218 256 293 334 353 11 24 71 109 122 137 130 127 126 120 129 138 150 133 129 136 128 126 124 124 132 132 135 141 143 145
342 340 337 335 332 330 329 328 326 323 321 319 316 314 312 311 310 310 310 311 313 316 318 320 322 319 324 325 322 336 331 311 262 259 359 318 202 196 179 168 174 174 172 170 163 159 145 142 153 150 136 145 146 162 191 196 182 180 213 271 7 177 95 59 83 108 115 127 123 126 122 116 127 132 139 135 134 150 153 148 142 142 143 140 142 145 146 148
341 339 337 335 333 330 327 325 325 323 321 318 317 315 312 312 310 309 306 308 312 312 316 317 320 320 321 330 330 347 331 224 92 21 44 7 176 174 174 169 174 175 168 164 156 151 147 149 160 157 148 152 152 174 210 199 197 214 226 259 287 243 97 94 107 111 113 113 113 124 121 118 125 125 143 144 142 154 155 152 143 146 147 144 145 147 148 150
342 340 338 335 333 330 327 324 322 320 320 318 316 314 312 312 310 308 305 308 310 308 314 313 315 319 319 357 346 0 323 228 349 332 333 339 178 166 169 170 173 170 162 156 145 145 147 159 172 162 162 158 169 189 201 190 201 236 251 263 249 170 109 123 124 116 122 122 114 116 116 120 124 126 141 117 74 118 127 133 137 142 146 143 143 147 151 152
345 344 342 339 336 332 329 324 321 319 317 316 315 313 312 312 307 305 304 304 306 306 310 309 310 314 350 69 69 57 294 270 320 318 314 330 165 163 168 170 171 166 160 152 146 154 155 170 186 160 160 164 183 204 203 191 202 235 268 336 126 118 115 132 136 133 126 118 112 115 118 121 129 136 136 87 94 116 121 127 133 140 144 143 143 148 151 153
348 347 346 344 340 334 330 326 324 320 316 314 312 313 311 309 304 301 301 297 302 307 303 303 307 301 97 109 165 342 243 270 320 325 316 167 153 158 164 164 168 167 161 158 153 161 163 171 179 155 173 179 171 199 205 204 203 224 242 118 113 104 110 130 139 139 120 112 120 113 103 97 121 134 121 106 120 124 126 131 134 139 145 146 146 149 151 153
351 348 346 345 342 337 335 330 327 322 317 314 312 313 311 308 304 297 295 296 299 302 298 297 299 217 134 121 272 271 256 302 325 331 250 160 155 159 163 159 167 168 161 161 154 158 168 175 173 159 196 185 164 191 193 219 215 209 201 123 118 113 113 130 135 134 117 117 130 110 98 90 105 127 106 113 132 130 132 136 138 142 145 148 149 150 153 153
353 350 346 346 343 342 340 333 329 324 318 316 314 314 312 306 299 290 289 293 297 295 291 285 271 144 150 175 220 225 359 358 354 355 166 163 157 159 161 158 163 165 158 159 158 161 171 181 174 162 207 166 174 209 187 236 209 158 150 110 114 119 114 129 129 128 117 110 129 118 109 90 78 177 121 134 143 136 137 139 143 146 145 148 150 151 155 154
355 352 350 348 345 344 341 334 331 325 321 319 316 318 312 300 287 281 282 285 295 289 279 269 189 158 175 201 215 219 30 19 9 18 167 162 158 160 162 161 161 159 152 154 164 170 175 179 180 195 178 153 246 275 284 227 148 135 133 107 106 117 112 129 130 130 121 93 110 115 101 75 74 169 132 147 150 142 141 143 149 151 146 149 151 151 155 155
357 355 353 350 346 343 340 337 334 329 325 319 318 320 300 287 274 272 277 279 292 280 269 241 169 159 171 228 233 234 265 334 350 8 164 158 157 160 163 166 169 165 154 148 166 183 188 113 191 196 58 343 285 312 357 146 140 142 141 117 118 126 110 122 132 128 127 135 138 118 103 127 155 86 132 149 151 147 144 146 153 153 148 149 152 153 157 158
358 356 354 351 347 343 341 340 337 330 326 319 318 313 286 279 271 269 276 272 294 97 137 164 155 149 180 252 234 248 278 299 332 142 160 159 154 153 160 165 174 178 168 164 166 182 187 55 106 171 46 329 351 355 152 140 143 152 149 133 138 146 121 108 132 62 113 139 151 132 152 179 164 96 144 152 152 151 147 149 156 156 152 152 155 159 162 162
358 357 355 351 347 344 342 342 339 333 329 323 316 308 291 283 273 268 251 141 120 122 128 145 141 121 207 265 264 304 302 257 243 153 160 162 144 135 152 156 161 170 175 184 177 181 188 69 25 136 87 320 5 342 165 143 158 156 147 153 159 170 142 125 154 152 137 164 321 13 204 187 164 141 152 157 158 157 153 155 159 159 158 155 157 163 164 167
357 357 355 351 348 344 342 344 341 337 334 326 319 314 294 277 269 227 137 95 129 147 132 136 136 99 267 278 267 321 13 171 171 168 169 165 146 127 148 149 140 146 144 166 183 191 197 213 4 148 137 335 304 219 156 138 172 164 163 177 186 191 143 133 168 191 173 178 283 294 184 179 166 159 158 161 166 163 156 159 163 163 163 160 159 164 165 168
356 356 355 351 347 343 342 345 346 343 337 330 327 329 200 145 113 120 107 77 125 147 139 143 151 258 262 302 153 149 204 161 160 173 174 171 160 136 143 144 133 145 138 114 161 184 188 201 14 77 327 263 210 179 153 152 167 180 222 191 181 180 157 153 163 211 225 158 191 256 158 155 164 167 165 167 171 167 160 162 166 167 167 166 162 164 165 167
355 355 353 350 346 343 342 346 352 349 343 346 9 109 120 114 102 95 96 96 122 137 143 151 20 274 252 290 207 162 255 155 146 171 175 178 176 147 138 132 122 139 146 119 108 139 161 186 179 124 252 226 214 181 171 183 175 184 214 175 182 179 166 164 147 195 219 162 175 217 165 145 155 163 168 172 174 170 166 165 168 170 170 170 168 167 169 171
353 352 350 348 345 342 341 346 354 354 356 37 105 118 113 105 95 92 111 119 118 140 157 156 234 255 224 269 280 304 312 250 137 160 168 167 165 153 141 130 128 128 131 141 130 143 161 180 241 231 204 182 197 195 187 194 189 185 186 172 174 175 173 176 146 171 186 167 175 190 180 147 151 156 162 172 177 175 173 169 168 171 172 173 173 174 175 178
351 350 347 345 343 341 340 346 355 0 35 107 124 122 116 107 100 102 113 116 139 212 271 197 207 298 268 267 299 310 308 213 138 144 154 151 150 145 130 128 132 133 144 153 159 167 162 155 188 221 212 187 187 203 214 268 202 175 166 169 160 161 170 165 139 153 168 168 179 187 171 153 157 156 158 171 181 180 175 170 170 173 173 176 180 181 181 186
349 348 345 342 341 340 338 343 354 9 117 134 136 129 120 108 105 109 113 191 217 253 286 231 190 273 286 271 300 319 324 153 134 142 152 151 144 129 114 126 130 142 157 155 155 155 175 183 195 216 213 203 198 203 206 19 186 167 156 159 157 156 146 141 130 142 165 176 180 182 151 154 161 156 164 173 178 183 181 173 174 178 178 180 185 187 187 193
347 346 343 339 339 339 336 339 349 18 156 160 158 150 136 115 325 325 255 238 222 227 250 240 190 254 271 274 290 333 38 118 83 132 154 150 145 136 128 147 144 157 160 138 129 115 196 199 199 220 221 210 208 199 177 115 165 172 179 178 167 154 112 96 122 135 159 225 178 173 154 157 162 154 165 173 177 187 186 179 180 183 183 184 188 192 194 198
346 344 341 337 336 338 334 335 342 103 159 175 185 221 267 259 281 271 263 277 253 217 233 246 249 259 267 268 254 252 97 101 87 129 158 154 160 157 157 172 157 153 149 138 134 142 196 208 207 220 215 111 146 190 199 203 162 175 190 186 175 139 109 76 106 125 109 305 168 169 166 161 162 155 162 174 183 192 183 183 188 186 187 188 190 195 198 199
344 342 339 334 334 337 331 333 340 156 156 179 202 220 272 311 267 223 198 299 282 207 191 206 220 240 258 264 221 187 171 150 121 152 173 166 167 158 160 170 154 143 152 157 159 173 188 215 218 210 163 158 150 160 183 181 181 183 180 186 160 152 148 119 159 134 97 55 158 164 157 152 162 158 161 165 168 176 159 174 186 190 194 192 192 197 199 200
343 341 338 331 332 337 328 330 343 167 186 230 226 221 306 334 258 211 202 294 280 298 210 201 210 219 244 247 174 170 155 156 153 162 179 171 140 152 164 157 150 148 150 144 147 170 175 116 191 156 155 187 170 154 181 192 201 192 207 213 146 165 184 120 150 142 103 105 152 149 139 175 182 175 177 158 142 173 179 171 179 191 200 197 196 201 201 203
342 341 337 329 328 338 332 328 155 276 317 255 231 255 339 341 233 192 188 297 260 301 223 186 219 210 212 145 159 178 134 149 181 157 172 174 148 150 154 148 167 153 133 127 136 172 176 129 148 139 148 186 181 188 199 208 220 205 228 237 175 170 156 116 138 144 129 169 173 164 171 196 191 190 186 170 166 183 185 192 192 187 194 197 198 202 203 204
342 340 335 327 325 336 345 321 168 329 319 225 228 328 345 345 181 171 181 323 88 356 332 166 210 182 173 149 154 195 158 152 214 146 165 174 157 148 152 151 209 142 133 126 135 183 152 145 163 158 159 171 191 212 191 201 226 191 240 239 181 162 141 139 153 159 161 177 169 184 211 133 195 208 191 179 184 185 182 203 207 191 188 193 198 202 202 201
341 339 333 325 323 331 345 208 282 320 297 187 295 329 347 0 164 164 251 276 115 12 320 206 197 150 167 176 160 187 169 135 114 140 170 177 165 153 164 160 138 136 134 132 160 191 141 150 164 159 163 173 201 217 178 191 219 207 333 234 171 159 152 156 166 178 166 102 139 186 231 92 246 224 184 179 190 192 193 203 210 207 196 193 200 200 200 200
341 338 331 324 321 319 302 261 274 256 222 300 305 329 352 89 157 168 286 165 89 328 263 27 261 164 136 156 163 205 43 126 136 147 184 169 165 357 155 171 158 132 132 176 180 157 147 174 174 168 185 202 214 215 165 181 208 40 54 124 143 146 153 161 173 186 166 138 161 192 211 202 249 222 167 172 194 204 204 201 202 208 202 196 201 200 198 201
341 338 327 321 316 309 291 260 247 222 222 280 311 333 358 126 146 247 259 87 46 292 231 2 245 211 109 127 164 292 58 127 132 127 144 153 159 1 145 168 149 128 109 212 196 153 155 201 182 178 204 216 219 201 164 181 175 101 106 102 104 110 118 146 176 170 166 205 208 184 195 216 223 188 168 173 200 211 208 202 199 204 206 200 201 200 196 196
342 336 322 314 309 303 284 263 248 222 231 286 324 341 40 127 164 264 125 62 10 236 211 277 269 272 140 140 163 304 123 101 66 109 126 136 96 42 84 107 111 130 99 42 217 197 78 147 163 196 214 220 223 190 157 167 147 126 116 102 96 101 100 107 128 140 184 222 228 179 189 211 235 184 183 182 199 203 197 198 194 196 207 206 203 202 196 192
340 331 313 304 297 272 254 274 219 191 246 307 332 2 96 119 274 275 74 52 256 278 27 246 324 48 125 145 166 129 102 84 100 139 142 144 116 86 122 141 108 130 135 153 208 254 276 207 180 215 213 194 186 142 127 155 151 140 131 127 112 98 113 116 95 174 211 198 45 176 181 199 235 192 193 200 182 188 196 200 194 189 198 202 200 202 198 192
338 323 303 291 278 248 234 244 230 241 291 314 347 51 151 223 297 57 30 344 207 333 345 6 333 119 117 128 139 103 103 84 94 148 140 155 168 147 158 171 156 162 176 193 185 197 242 217 190 216 211 192 183 143 131 164 169 169 160 155 148 120 149 172 163 210 227 179 44 169 174 194 245 111 174 202 201 204 207 208 198 185 187 191 189 195 196 191
335 316 297 283 268 254 252 262 269 279 291 299 47 69 178 124 56 45 309 323 47 342 2 52 16 99 120 149 126 67 91 85 44 158 108 122 179 172 123 60 163 186 146 183 191 201 212 196 184 199 200 197 198 183 158 167 184 185 172 171 174 166 169 186 184 213 236 187 72 146 173 203 245 133 131 213 219 221 216 217 202 182 179 181 177 182 186 189
335 314 299 282 271 271 268 263 268 276 255 157 92 144 139 78 46 322 280 297 297 297 1 10 81 79 82 128 71 2 124 68 62 122 111 151 175 180 182 123 157 213 75 171 197 209 211 205 183 185 176 179 193 204 175 156 177 188 181 193 193 184 195 203 205 214 182 124 99 136 176 232 231 135 236 265 248 228 216 221 206 181 171 166 162 170 177 185
338 320 306 294 301 313 281 253 246 218 169 128 60 95 83 63 309 281 308 290 271 218 44 1 100 94 79 39 10 349 201 46 70 93 82 158 164 158 193 186 158 165 153 183 187 188 231 256 185 181 169 174 184 189 162 157 178 186 179 205 207 197 185 124 333 136 104 106 126 165 200 302 354 158 216 227 220 205 199 204 197 181 165 158 157 167 174 180
353 338 331 344 358 359 324 230 192 173 162 203 8 62 50 357 240 208 214 296 303 67 114 83 59 75 113 106 28 45 47 43 110 99 59 127 148 91 193 223 170 189 201 213 203 160 212 239 148 142 191 193 187 169 167 181 176 156 188 205 185 152 169 153 83 97 121 164 165 203 229 268 236 207 186 193 195 179 173 187 191 181 167 163 163 165 170 170
10 7 42 24 4 353 68 147 158 161 145 147 70 67 27 271 206 198 230 305 323 56 134 130 50 51 143 144 83 56 69 91 141 136 104 155 97 84 242 264 178 201 221 236 239 207 235 262 171 175 199 205 190 158 170 195 162 154 194 180 116 70 105 165 168 147 190 205 161 203 232 242 234 210 158 176 179 168 168 188 194 183 171 170 169 158 158 159
0 30 78 11 352 356 141 140 150 159 103 75 56 78 217 285 222 222 252 292 178 107 109 123 40 306 179 153 139 49 324 159 155 135 135 170 95 115 276 285 168 205 243 211 221 184 230 262 216 187 196 152 145 163 173 204 219 194 177 161 149 189 182 161 190 187 193 202 168 187 227 245 229 202 171 177 177 168 166 178 194 188 180 178 172 157 153 156
357 86 68 353 351 128 138 131 137 103 49 60 25 59 250 285 269 244 236 149 141 124 91 103 71 78 167 129 126 111 319 159 147 142 148 174 116 139 283 298 178 242 226 187 197 150 203 255 163 132 146 127 153 186 192 185 204 295 156 171 201 259 192 169 178 206 199 197 193 180 200 229 217 182 176 178 173 173 170 168 188 193 188 181 171 163 158 155
11 113 24 352 35 133 131 11 14 19 56 65 343 347 329 290 286 280 219 193 334 153 67 119 160 96 121 116 116 114 31 83 129 137 153 147 127 159 243 233 216 293 211 187 202 169 160 240 226 101 119 171 174 196 201 179 177 194 185 180 183 149 171 165 128 294 223 184 183 206 209 192 129 120 177 172 166 176 175 165 174 192 193 185 168 162 155 153
42 102 13 357 99 131 3 339 45 26 47 62 281 256 306 312 316 333 335 131 71 8 47 115 121 77 132 126 84 118 79 75 93 92 121 149 175 179 160 181 214 272 164 169 197 199 177 203 236 235 182 199 184 170 214 195 186 194 194 185 184 169 161 177 177 166 254 195 179 225 256 103 109 98 215 173 166 167 159 158 157 169 191 190 177 168 161 159
105 81 4 329 153 105 348 5 89 16 206 19 335 261 300 339 332 337 350 11 48 67 52 82 98 58 69 80 69 111 95 77 51 29 109 103 153 254 42 121 201 236 189 169 141 179 176 157 221 254 261 240 276 34 264 241 191 183 201 191 183 180 185 196 192 165 162 145 87 250 299 78 105 73 210 171 149 136 141 150 140 123 155 186 182 180 178 170
110 91 14 259 204 297 357 93 16 1 215 329 315 240 285 341 343 346 358 6 14 45 53 45 33 51 47 19 109 92 43 60 38 10 75 89 115 236 319 327 191 180 176 179 132 152 182 158 208 245 264 279 32 97 98 340 188 185 214 186 181 187 197 201 184 163 171 166 155 203 228 134 126 119 172 152 129 129 141 140 138 129 122 136 151 169 184 184
53 120 83 316 245 257 339 67 336 7 343 324 343 29 9 1 8 4 12 19 9 17 57 37 358 54 52 20 89 67 7 73 82 18 54 106 104 106 328 317 249 175 177 196 153 168 195 192 197 201 178 156 150 148 142 165 201 196 150 149 170 138 119 115 105 146 181 171 166 220 214 135 133 143 146 141 134 134 133 133 144 146 134 121 108 105 136 180
21 153 260 356 21 153 87 73 339 9 336 329 358 14 2 30 34 359 5 30 19 5 75 52 351 41 54 64 92 62 20 40 89 27 74 140 229 83 325 308 308 304 280 286 139 172 171 109 236 209 189 184 176 171 169 164 173 155 118 143 162 148 145 139 126 169 194 164 160 238 197 121 136 152 153 148 140 132 126 132 140 135 124 114 96 81 70 57
56 142 299 6 52 58 70 64 4 3 266 322 16 13 0 4 333 314 39 54 24 14 58 57 350 7 52 52 77 59 26 24 65 102 92 20 268 294 321 299 321 0 4 67 101 148 147 96 19 240 210 218 179 93 333 311 161 160 149 152 162 163 162 141 149 181 178 151 177 234 139 145 162 168 161 153 143 135 132 135 132 124 110 98 90 80 71 60
29 120 49 44 87 41 84 85 27 1 240 288 99 349 354 349 326 351 33 59 25 12 47 46 12 11 64 71 85 57 18 17 50 63 37 330 289 291 297 257 308 348 349 62 94 140 140 89 47 40 50 6 318 308 304 321 78 145 148 150 152 153 180 180 173 161 143 155 197 183 152 162 174 176 169 156 145 139 139 138 128 118 106 99 99 91 86 86
14 133 95 311 232 104 106 27 17 54 142 71 136 8 13 25 34 23 7 15 23 15 32 47 24 21 24 94 110 62 2 29 48 27 357 355 323 312 320 258 357 358 354 53 59 351 138 79 42 72 70 61 50 55 82 89 70 66 80 104 128 148 186 189 176 138 151 186 216 165 167 174 171 171 169 157 150 147 143 137 122 115 112 107 105 97 86 79
25 110 119 317 288 146 236 318 340 122 89 39 52 46 33 40 57 57 330 344 24 18 22 80 33 9 359 58 101 76 6 58 61 15 339 357 331 346 13 13 18 11 20 53 27 312 169 69 16 265 70 61 58 64 77 86 86 76 62 55 68 92 112 119 112 109 102 4 93 151 159 159 159 167 167 158 155 149 140 136 129 125 121 114 107 98 83 69
17 74 351 2 81 98 320 333 334 125 64 12 46 55 37 42 59 70 356 3 19 8 16 111 94 351 338 45 85 85 46 106 98 29 253 226 312 83 38 354 307 354 14 40 335 308 300 96 248 239 86 58 48 62 74 73 87 85 66 45 43 63 89 100 119 123 76 56 113 138 141 141 157 164 160 153 149 145 144 145 140 133 126 119 112 100 87 76
356 288 303 229 82 5 1 33 41 106 63 20 103 110 125 110 81 80 53 28 13 13 23 99 104 27 353 51 72 72 27 236 222 278 261 239 342 339 354 100 245 328 359 12 335 335 342 134 153 257 110 63 32 47 69 54 97 88 55 21 4 4 81 91 93 130 144 129 133 138 145 156 163 159 152 148 147 148 148 144 141 138 131 126 117 104 97 90
349 262 317 262 128 9 6 82 44 118 126 44 125 136 149 153 161 155 89 51 20 37 42 207 158 101 53 51 52 31 327 282 276 309 269 196 62 25 55 86 76 16 354 357 23 348 336 92 81 324 56 64 4 5 65 157 162 92 21 348 327 316 85 93 60 56 114 140 144 151 146 146 153 152 147 148 150 149 145 142 143 138 129 125 119 111 107 101